Location: Aranbee
(34.0885°N, 118.2342°W)
Time: 23:11:08
(UTC+00:00)

Vanguard 1 - Visible Passes

Search period start: 05 December 2020 00:00
Search period end: 15 December 2020 00:00
Orbit: 650 x 3833 km, 34.2° (Epoch: 05 December)

Date Brightness Start Highest point End Pass type
(mag) Time Alt. Az. Time Alt. Az. Time Alt. Az.
05 Dec 9.8 12:40:53 60° W 12:42:04 88° N 12:50:36 10° E visible
06 Dec 12.6 10:48:03 11° E 10:48:03 11° E 10:48:22 10° E visible
06 Dec 10.0 13:00:46 40° W 13:03:02 89° N 13:12:03 10° E visible
07 Dec 12.2 11:07:54 18° E 11:07:54 18° E 11:09:31 10° E visible
07 Dec 10.2 13:20:38 27° W 13:24:00 86° S 13:33:29 10° E visible
08 Dec 11.6 11:27:46 26° E 11:27:46 26° E 11:30:41 10° E visible
08 Dec 10.4 13:40:29 18° W 13:44:57 77° SSW 13:54:51 10° ESE visible
09 Dec 11.0 11:47:37 38° E 11:47:37 38° E 11:51:54 10° E visible
09 Dec 10.7 14:00:20 11° W 14:05:55 65° SSW 14:16:07 10° ESE visible
10 Dec 10.2 12:07:27 58° E 12:07:27 58° E 12:13:09 10° E visible
10 Dec 11.1 14:21:01 10° W 14:26:53 53° SSW 14:37:11 10° SE visible
11 Dec 9.6 12:27:19 82° SSE 12:27:19 82° SSE 12:34:24 10° ESE visible
12 Dec 9.7 12:47:10 59° WSW 12:48:05 71° SSW 12:55:36 10° ESE visible
13 Dec 10.2 13:07:02 37° WSW 13:08:59 57° SSW 13:16:39 10° ESE visible
14 Dec 12.3 11:14:11 15° E 11:14:11 15° E 11:15:09 10° E visible
14 Dec 10.6 13:26:54 23° WSW 13:29:53 44° SSW 13:37:31 10° SE visible
